EW0603 Weather Reports


time (UTC)temp
C
wind
direction
speed
KPH
gust
KPH
rain 1hr
cm
rain 24hr
cm
rain mn
cm
humidity
%
barometer
mb
20260509032539 10 155 0.0 0.0 0.00 0.15 0.15 85 1005.7
20260509032433 10 155 0.0 0.0 0.00 0.15 0.15 85 1005.7
20260509032326 10 155 0.0 0.0 0.00 0.15 0.15 85 1005.7
20260509032220 10 155 0.0 0.0 0.00 0.15 0.15 84 1005.7
20260509032117 10 155 0.0 0.0 0.00 0.15 0.15 84 1005.7
20260509032013 10 155 0.0 0.0 0.00 0.15 0.15 84 1005.7
20260509031909 10 155 0.0 0.0 0.00 0.15 0.15 84 1005.7
20260509031802 10 155 0.0 0.0 0.00 0.15 0.15 84 1005.7
20260509031655 10 155 0.0 0.0 0.00 0.15 0.15 84 1005.7
20260509031550 10 155 0.0 0.0 0.00 0.15 0.15 84 1005.8
20260509031002 10 155 0.0 0.0 0.00 0.15 0.15 83 1005.8
20260509030856 10 155 0.0 1.6 0.00 0.15 0.15 83 1005.8
20260509030309 10 155 0.0 1.6 0.10 0.15 0.15 81 1005.8
20260509030204 10 134 0.0 0.0 0.10 0.15 0.15 81 1005.8
20260509025840 11 135 0.0 0.0 0.13 0.15 0.15 80 1005.9
20260509025513 11 171 0.0 0.0 0.20 0.15 0.15 77 1006.1
20260509025411 11 171 1.6 0.0 0.23 0.15 0.15 77 1006.1
20260509025308 11 171 1.6 9.7 0.25 0.15 0.15 76 1006.2
20260509025204 11 171 3.2 9.7 0.33 0.15 0.15 76 1006.2
20260509025057 11 171 3.2 9.7 0.46 0.15 0.15 75 1006.2
20260509024951 11 171 3.2 9.7 0.71 0.15 0.15 74 1006.2
20260509024846 12 156 3.2 9.7 0.81 0.15 0.15 73 1006.1
20260509024744 12 156 3.2 9.7 0.81 0.15 0.15 72 1006.1
20260509024639 12 163 3.2 9.7 2.03 0.15 0.15 71 1006.2
20260509024529 12 0 3.2 9.7 0.51 0.10 0.13 71 1006.4
20260509024425 12 0 3.2 9.7 0.53 0.10 0.10 69 1006.4
20260509024318 12 218 3.2 9.7 0.53 0.10 0.10 67 1006.3
20260509024211 12 266 3.2 9.7 0.53 0.08 0.08 73 1006.3
20260509024107 12 251 1.6 9.7 0.25 0.08 0.08 77 1006.2
20260509023526 13 275 0.0 9.7 0.48 0.05 0.05 76 1006.1
20260509023417 13 265 0.0 9.7 0.48 0.03 0.05 78 1006.1
20260509023312 13 252 0.0 4.8 0.00 0.03 0.03 78 1006.1
20260509023210 13 213 0.0 0.0 0.00 0.03 0.03 77 1006.2
20260509023105 13 221 0.0 0.0 0.00 0.00 0.03 77 1006.1
20260509022958 13 196 1.6 0.0 0.00 0.00 0.00 77 1006.1
20260509022851 13 263 1.6 0.0 0.00 0.00 0.00 77 1006.1
20260509022748 13 288 1.6 0.0 0.00 0.00 0.00 77 1006.1
20260509022644 13 286 1.6 0.0 0.00 0.00 0.00 77 1006.1
20260509022319 13 319 1.6 6.4 0.00 0.00 0.00 76 1006.1
20260509022214 13 294 1.6 6.4 0.00 0.00 0.00 76 1006.1
20260509022110 13 296 0.0 6.4 0.00 0.00 0.00 76 1006.1
20260509022008 13 290 0.0 6.4 0.00 0.00 0.00 76 1006.0
20260509021902 13 282 0.0 6.4 0.00 0.00 0.00 76 1006.0
20260509021757 13 282 0.0 6.4 0.00 0.00 0.00 76 1006.0
20260509021434 13 224 0.0 0.0 0.00 0.00 0.00 76 1005.8
20260509021330 13 224 0.0 0.0 0.00 0.00 0.00 76 1005.8
20260509020739 13 261 0.0 0.0 0.00 0.00 0.00 75 1005.7
20260509020631 13 271 0.0 9.7 0.00 0.00 0.00 75 1005.7
20260509020528 13 271 0.0 9.7 0.00 0.00 0.00 75 1005.7
20260509020426 13 248 0.0 9.7 0.00 0.00 0.00 75 1005.7
20260509020320 13 249 0.0 9.7 0.00 0.00 0.00 75 1005.6
20260509020212 13 250 0.0 9.7 0.00 0.00 0.00 75 1005.6
20260509020109 13 202 0.0 9.7 0.00 0.00 0.00 75 1005.5
20260509020004 13 205 0.0 9.7 0.00 0.00 0.00 75 1005.5
20260509015636 13 164 0.0 0.0 0.00 0.00 0.00 75 1005.4
20260509015531 13 173 0.0 0.0 0.00 0.00 0.00 75 1005.4
20260509015428 13 173 0.0 0.0 0.00 0.00 0.00 75 1005.5
20260509015323 13 187 0.0 0.0 0.00 0.00 0.00 75 1005.4
20260509015216 13 185 0.0 8.0 0.00 0.00 0.00 75 1005.4
20260509015111 13 0 0.0 8.0 0.00 0.00 0.00 74 1005.4
20260509015006 13 186 0.0 8.0 0.00 0.00 0.00 74 1005.4
20260509014642 13 180 0.0 8.0 0.00 0.00 0.00 74 1005.3
20260509014539 13 182 0.0 3.2 0.00 0.00 0.00 74 1005.3
20260509014432 13 207 0.0 0.0 0.00 0.00 0.00 74 1005.3
20260509014326 13 209 0.0 6.4 0.00 0.00 0.00 74 1005.4
20260509014223 13 178 0.0 6.4 0.00 0.00 0.00 74 1005.4
20260509014117 13 158 0.0 6.4 0.00 0.00 0.00 74 1005.3
20260509014013 13 190 0.0 4.8 0.00 0.00 0.00 73 1005.3
20260509013906 13 185 0.0 4.8 0.00 0.00 0.00 73 1005.2
20260509013803 13 174 0.0 4.8 0.00 0.00 0.00 73 1005.3
20260509013440 13 180 0.0 11.3 0.00 0.00 0.00 73 1005.2
20260509013338 13 188 1.6 11.3 0.00 0.00 0.00 73 1005.3
20260509013017 13 159 1.6 11.3 0.00 0.00 0.00 72 1005.3
20260509012910 13 163 1.6 11.3 0.00 0.00 0.00 72 1005.2
20260509012805 13 188 1.6 11.3 0.00 0.00 0.00 72 1005.2
20260509012700 13 193 1.6 11.3 0.00 0.00 0.00 72 1005.2
20260509012557 13 0 1.6 11.3 0.00 0.00 0.00 72 1005.2
20260509012453 13 216 0.0 11.3 0.00 0.00 0.00 71 1005.2
20260509012347 13 173 0.0 8.0 0.00 0.00 0.00 71 1005.2
20260509012239 13 197 1.6 8.0 0.00 0.00 0.00 71 1005.2
20260509012136 13 186 0.0 8.0 0.00 0.00 0.00 71 1005.2
20260509012032 13 179 0.0 8.0 0.00 0.00 0.00 71 1005.2
20260509011926 13 190 0.0 8.0 0.00 0.00 0.00 71 1005.2
20260509011820 13 182 0.0 1.6 0.00 0.00 0.00 71 1005.2
20260509011714 13 181 0.0 0.0 0.00 0.00 0.00 71 1005.2
20260509011611 13 181 1.6 11.3 0.00 0.00 0.00 71 1005.2
20260509011506 13 181 1.6 11.3 0.00 0.00 0.00 70 1005.2
20260509011359 14 190 1.6 11.3 0.00 0.00 0.00 70 1005.1
20260509011255 14 205 1.6 9.7 0.00 0.00 0.00 70 1005.1
20260509010927 14 0 1.6 9.7 0.00 0.00 0.00 69 1005.1
20260509010606 14 208 1.6 4.8 0.00 0.00 0.00 69 1005.1
20260509010459 14 220 0.0 4.8 0.00 0.00 0.00 68 1005.1
20260509010356 14 213 0.0 4.8 0.00 0.00 0.00 68 1005.0
20260509010250 14 207 0.0 4.8 0.00 0.00 0.00 68 1005.1
20260509010148 14 200 0.0 4.8 0.00 0.00 0.00 67 1005.0
20260509010041 14 214 0.0 3.2 0.00 0.00 0.00 67 1005.0
20260509005937 14 182 0.0 3.2 0.00 0.00 0.00 67 1005.0
20260509005832 14 186 0.0 3.2 0.00 0.00 0.00 67 1005.0
20260509005728 14 196 0.0 1.6 0.00 0.00 0.00 67 1005.0
20260509005625 14 0 0.0 0.0 0.00 0.00 0.00 67 1005.0
20260509005519 14 198 0.0 0.0 0.00 0.00 0.00 67 1005.0
20260509005416 14 191 0.0 8.0 0.00 0.00 0.00 66 1005.0
20260509005311 14 227 0.0 8.0 0.00 0.00 0.00 66 1005.0
20260509004943 14 205 0.0 8.0 0.00 0.00 0.00 65 1004.9
20260509004836 15 183 0.0 8.0 0.00 0.00 0.00 65 1004.9
20260509004734 14 200 0.0 8.0 0.00 0.00 0.00 65 1004.9
20260509004631 15 202 0.0 8.0 0.00 0.00 0.00 65 1004.9
20260509004529 15 175 0.0 0.0 0.00 0.00 0.00 65 1004.8
20260509004422 15 177 0.0 3.2 0.00 0.00 0.00 64 1004.9
20260509004317 15 175 0.0 3.2 0.00 0.00 0.00 64 1004.8
20260509004212 15 239 0.0 0.0 0.00 0.00 0.00 64 1004.8
20260509003629 15 155 0.0 0.0 0.00 0.00 0.00 64 1004.8
20260509003524 15 153 0.0 0.0 0.00 0.00 0.00 63 1004.7
20260509003421 15 153 0.0 0.0 0.00 0.00 0.00 63 1004.7
20260509003319 15 153 0.0 0.0 0.00 0.00 0.00 63 1004.7
20260509002734 15 206 0.0 3.2 0.00 0.00 0.00 63 1004.7
20260509002630 15 205 0.0 3.2 0.00 0.00 0.00 63 1004.7
20260509002522 15 205 0.0 3.2 0.00 0.00 0.00 63 1004.7
20260509002417 15 205 0.0 3.2 0.00 0.00 0.00 63 1004.7
20260509002310 15 183 0.0 3.2 0.00 0.00 0.00 63 1004.7
20260509002208 15 192 0.0 0.0 0.00 0.00 0.00 63 1004.7
20260509002103 15 190 0.0 6.4 0.00 0.00 0.00 63 1004.7
20260509001959 15 193 0.0 6.4 0.00 0.00 0.00 63 1004.7
20260509001855 15 198 0.0 6.4 0.00 0.00 0.00 63 1004.7
20260509001752 15 215 0.0 0.0 0.00 0.00 0.00 63 1004.7
20260509001648 15 212 0.0 0.0 0.00 0.00 0.00 63 1004.8
20260509001544 15 212 0.0 0.0 0.00 0.00 0.00 63 1004.7
20260509001442 15 213 0.0 9.7 0.00 0.00 0.00 63 1004.7
20260509001335 15 215 0.0 9.7 0.00 0.00 0.00 63 1004.7
20260509001231 15 232 0.0 9.7 0.00 0.00 0.00 63 1004.7
20260509001130 16 0 0.0 9.7 0.00 0.00 0.00 63 1004.7
20260509001022 16 197 0.0 0.0 0.00 0.00 0.00 63 1004.7
20260509000915 16 198 0.0 6.4 0.00 0.00 0.00 63 1004.7
20260509000808 16 233 0.0 6.4 0.00 0.00 0.00 63 1004.7
20260509000447 16 194 0.0 4.8 0.00 0.00 0.00 63 1004.8
20260509000342 16 202 1.6 0.0 0.00 0.00 0.00 63 1004.7
20260509000236 16 173 1.6 0.0 0.00 0.00 0.00 63 1004.7
20260509000130 16 200 3.2 0.0 0.00 0.00 0.00 63 1004.7
20260509000024 16 202 3.2 12.9 0.00 0.00 0.00 62 1004.7
20260508235918 16 193 3.2 12.9 0.00 0.00 0.00 62 1004.7
20260508235814 16 202 3.2 12.9 0.00 0.00 0.00 62 1004.7
20260508235448 16 0 3.2 14.5 0.00 0.00 0.00 62 1004.8
20260508235119 16 209 3.2 14.5 0.00 0.00 0.00 62 1004.7
20260508235015 16 188 3.2 14.5 0.00 0.00 0.00 62 1004.7
20260508234913 16 207 3.2 14.5 0.00 0.00 0.00 62 1004.7
20260508234548 16 184 3.2 12.9 0.00 0.00 0.00 61 1004.8
20260508234443 16 217 3.2 12.9 0.00 0.00 0.00 62 1004.7
20260508233903 16 168 3.2 12.9 0.00 0.00 0.00 61 1004.7
20260508233756 16 232 3.2 12.9 0.00 0.00 0.00 62 1004.7
20260508233650 16 207 1.6 9.7 0.00 0.00 0.00 61 1004.7
20260508233545 16 0 1.6 9.7 0.00 0.00 0.00 61 1004.7
20260508233443 16 194 1.6 9.7 0.00 0.00 0.00 61 1004.7
20260508233340 16 233 1.6 9.7 0.00 0.00 0.00 61 1004.7
20260508233237 16 212 1.6 9.7 0.00 0.00 0.00 61 1004.7
20260508233129 16 185 1.6 6.4 0.00 0.00 0.00 60 1004.7
20260508232800 16 230 1.6 0.0 0.00 0.00 0.00 61 1004.7
20260508232213 16 198 1.6 9.7 0.00 0.00 0.00 60 1004.7
20260508232110 16 203 1.6 14.5 0.00 0.00 0.00 60 1004.7
20260508232008 16 0 1.6 14.5 0.00 0.00 0.00 60 1004.7
20260508231904 16 219 1.6 14.5 0.00 0.00 0.00 60 1004.7
20260508231800 16 171 1.6 14.5 0.00 0.00 0.00 60 1004.7
20260508231655 17 223 1.6 14.5 0.00 0.00 0.00 59 1004.7
20260508231552 17 198 1.6 14.5 0.00 0.00 0.00 58 1004.7
20260508231447 17 240 0.0 14.5 0.00 0.00 0.00 58 1004.7
20260508231343 17 209 0.0 14.5 0.00 0.00 0.00 58 1004.7
20260508231239 17 169 0.0 14.5 0.00 0.00 0.00 58 1004.8
20260508230912 17 189 0.0 0.0 0.00 0.00 0.00 58 1004.6
20260508230809 17 0 0.0 6.4 0.00 0.00 0.00 57 1004.7
20260508230222 17 182 0.0 11.3 0.00 0.00 0.00 55 1004.7
20260508230117 17 181 0.0 11.3 0.00 0.00 0.00 54 1004.7
20260508230009 17 0 1.6 11.3 0.00 0.00 0.00 54 1004.7
20260508225904 17 232 1.6 11.3 0.00 0.00 0.00 54 1004.6
20260508225757 17 175 1.6 12.9 0.00 0.00 0.00 54 1004.7
20260508225654 17 0 1.6 12.9 0.00 0.00 0.00 53 1004.7
20260508225549 17 252 1.6 12.9 0.00 0.00 0.00 53 1004.7
20260508225442 17 0 1.6 12.9 0.00 0.00 0.00 53 1004.8
20260508225338 17 217 1.6 12.9 0.00 0.00 0.00 53 1004.7
20260508225230 17 162 3.2 12.9 0.00 0.00 0.00 52 1004.7
20260508225125 17 195 3.2 12.9 0.00 0.00 0.00 52 1004.7
20260508225022 17 203 3.2 12.9 0.00 0.00 0.00 53 1004.7
20260508224917 17 209 1.6 12.9 0.00 0.00 0.00 53 1004.7
20260508224549 17 180 1.6 16.1 0.00 0.00 0.00 54 1004.7
20260508224445 17 184 1.6 16.1 0.00 0.00 0.00 53 1004.7
20260508224342 17 247 1.6 16.1 0.00 0.00 0.00 53 1004.8
20260508224239 17 189 1.6 16.1 0.00 0.00 0.00 53 1004.7
20260508223914 17 209 1.6 16.1 0.00 0.00 0.00 52 1004.6
20260508223810 17 186 3.2 16.1 0.00 0.00 0.00 52 1004.7
20260508223443 17 196 3.2 16.1 0.00 0.00 0.00 51 1004.7
20260508223341 17 202 4.8 16.1 0.00 0.00 0.00 51 1004.7
20260508223236 17 225 4.8 16.1 0.00 0.00 0.00 51 1004.8
20260508223131 17 0 3.2 16.1 0.00 0.00 0.00 51 1004.8
20260508223024 17 179 3.2 16.1 0.00 0.00 0.00 51 1004.7
20260508222920 17 0 3.2 16.1 0.00 0.00 0.00 51 1004.8
20260508222815 17 186 3.2 16.1 0.00 0.00 0.00 51 1004.7
20260508222711 17 189 3.2 14.5 0.00 0.00 0.00 51 1004.7
20260508222606 17 0 1.6 14.5 0.00 0.00 0.00 51 1004.7
20260508222459 17 171 1.6 14.5 0.00 0.00 0.00 51 1004.7
20260508222357 17 0 1.6 9.7 0.00 0.00 0.00 52 1004.7
20260508222037 17 238 1.6 9.7 0.00 0.00 0.00 54 1004.8
20260508221934 17 157 1.6 9.7 0.00 0.00 0.00 53 1004.8
20260508221832 17 197 1.6 9.7 0.00 0.00 0.00 55 1004.8
20260508221729 17 188 1.6 1.6 0.00 0.00 0.00 54 1004.8
20260508221626 17 200 1.6 9.7 0.00 0.00 0.00 54 1004.9
20260508221519 17 215 1.6 9.7 0.00 0.00 0.00 54 1004.9
20260508221415 17 229 0.0 9.7 0.00 0.00 0.00 53 1004.9
20260508221311 17 0 0.0 9.7 0.00 0.00 0.00 53 1004.9
20260508221207 17 0 0.0 9.7 0.00 0.00 0.00 53 1004.9
20260508221059 17 196 0.0 8.0 0.00 0.00 0.00 51 1004.9
20260508220954 17 186 0.0 8.0 0.00 0.00 0.00 51 1005.0
20260508220625 17 208 0.0 8.0 0.00 0.00 0.00 49 1005.0
20260508220519 17 219 0.0 4.8 0.00 0.00 0.00 48 1005.0
20260508220417 17 251 0.0 4.8 0.00 0.00 0.00 47 1005.0
20260508220310 17 198 0.0 0.0 0.00 0.00 0.00 49 1005.0
20260508220206 17 204 0.0 0.0 0.00 0.00 0.00 49 1005.0
20260508220100 17 205 1.6 0.0 0.00 0.00 0.00 49 1005.1
20260508215734 17 239 0.0 8.0 0.00 0.00 0.00 49 1005.0
20260508215631 17 263 0.0 8.0 0.00 0.00 0.00 48 1005.0
20260508215528 17 257 0.0 8.0 0.00 0.00 0.00 49 1005.0
20260508215426 17 212 0.0 8.0 0.00 0.00 0.00 48 1005.0
20260508215321 17 0 0.0 8.0 0.00 0.00 0.00 49 1005.0
20260508215216 17 234 0.0 4.8 0.00 0.00 0.00 47 1005.1
20260508214848 17 0 0.0 1.6 0.00 0.00 0.00 49 1005.1
20260508214745 17 204 1.6 1.6 0.00 0.00 0.00 47 1005.1
20260508214641 17 0 1.6 0.0 0.00 0.00 0.00 48 1005.1
20260508214315 17 213 1.6 12.9 0.00 0.00 0.00 46 1005.1
20260508214211 17 204 1.6 12.9 0.00 0.00 0.00 46 1005.1
20260508214104 17 225 3.2 12.9 0.00 0.00 0.00 46 1005.1
20260508213959 17 231 3.2 12.9 0.00 0.00 0.00 46 1005.1
20260508213852 17 196 3.2 12.9 0.00 0.00 0.00 47 1005.1
20260508213310 17 219 1.6 12.9 0.00 0.00 0.00 46 1005.1
20260508213208 17 188 1.6 12.9 0.00 0.00 0.00 46 1005.0
20260508213103 17 211 3.2 12.9 0.00 0.00 0.00 46 1005.1
20260508212956 17 224 3.2 12.9 0.00 0.00 0.00 46 1005.1
20260508212854 17 227 3.2 12.9 0.00 0.00 0.00 46 1005.1
20260508212751 17 208 4.8 0.0 0.00 0.00 0.00 46 1005.1
20260508212649 17 194 6.4 16.1 0.00 0.00 0.00 45 1005.2
20260508212546 17 246 6.4 16.1 0.00 0.00 0.00 46 1005.2
20260508212440 17 250 6.4 16.1 0.00 0.00 0.00 45 1005.2
20260508212338 17 282 6.4 16.1 0.00 0.00 0.00 45 1005.2
20260508212234 17 263 6.4 16.1 0.00 0.00 0.00 45 1005.2
20260508211656 18 0 1.6 14.5 0.00 0.00 0.00 45 1005.3
20260508211549 18 265 1.6 14.5 0.00 0.00 0.00 46 1005.2
20260508211443 18 245 1.6 14.5 0.00 0.00 0.00 48 1005.2
20260508211339 18 281 1.6 14.5 0.00 0.00 0.00 48 1005.3
20260508211236 18 225 1.6 14.5 0.00 0.00 0.00 49 1005.2
20260508211129 17 236 1.6 14.5 0.00 0.00 0.00 48 1005.3
20260508211026 17 227 1.6 14.5 0.00 0.00 0.00 48 1005.3
20260508210923 17 197 1.6 14.5 0.00 0.00 0.00 49 1005.3
20260508210820 17 250 1.6 14.5 0.00 0.00 0.00 48 1005.3
20260508210716 17 178 1.6 14.5 0.00 0.00 0.00 49 1005.3
20260508210612 17 200 1.6 14.5 0.00 0.00 0.00 50 1005.3
20260508210508 17 180 1.6 14.5 0.00 0.00 0.00 47 1005.3
20260508210404 17 184 0.0 14.5 0.00 0.00 0.00 48 1005.3
20260508210300 17 0 0.0 14.5 0.00 0.00 0.00 47 1005.3
20260508205932 17 182 0.0 14.5 0.00 0.00 0.00 48 1005.2
20260508205827 17 176 0.0 6.4 0.00 0.00 0.00 48 1005.2
20260508205720 17 248 0.0 6.4 0.00 0.00 0.00 47 1005.2
20260508205617 17 257 0.0 6.4 0.00 0.00 0.00 49 1005.2
20260508205511 17 225 0.0 1.6 0.00 0.00 0.00 48 1005.2
20260508205404 17 250 1.6 6.4 0.00 0.00 0.00 47 1005.2
20260508205300 17 244 0.0 6.4 0.00 0.00 0.00 46 1005.2
20260508205153 17 225 0.0 3.2 0.00 0.00 0.00 46 1005.2
20260508205049 17 225 0.0 3.2 0.00 0.00 0.00 47 1005.3
20260508204944 17 203 0.0 11.3 0.00 0.00 0.00 46 1005.3
20260508204840 17 0 0.0 11.3 0.00 0.00 0.00 46 1005.3
20260508204737 17 257 0.0 11.3 0.00 0.00 0.00 47 1005.3
20260508204409 17 307 0.0 0.0 0.00 0.00 0.00 51 1005.3
20260508204303 17 190 0.0 4.8 0.00 0.00 0.00 48 1005.3
20260508204157 17 190 0.0 4.8 0.00 0.00 0.00 48 1005.4
20260508204053 17 172 1.6 4.8 0.00 0.00 0.00 48 1005.4
20260508203948 17 167 1.6 0.0 0.00 0.00 0.00 50 1005.4
20260508203840 17 263 1.6 0.0 0.00 0.00 0.00 49 1005.4
20260508203734 17 263 1.6 0.0 0.00 0.00 0.00 50 1005.4
20260508203631 16 261 1.6 0.0 0.00 0.00 0.00 49 1005.5
20260508203524 16 262 1.6 12.9 0.00 0.00 0.00 48 1005.5
20260508203419 16 290 3.2 12.9 0.00 0.00 0.00 48 1005.5
20260508203313 16 288 3.2 14.5 0.00 0.00 0.00 48 1005.5
20260508203207 17 311 1.6 14.5 0.00 0.00 0.00 48 1005.5
20260508203104 17 276 3.2 14.5 0.00 0.00 0.00 48 1005.5
20260508203002 17 281 3.2 14.5 0.00 0.00 0.00 48 1005.5
20260508202854 17 232 3.2 14.5 0.00 0.00 0.00 48 1005.6
20260508202529 17 243 6.4 14.5 0.00 0.00 0.00 46 1005.7
20260508202427 17 246 6.4 14.5 0.00 0.00 0.00 46 1005.6
20260508202321 17 0 6.4 14.5 0.00 0.00 0.00 46 1005.6
20260508202216 17 242 6.4 14.5 0.00 0.00 0.00 46 1005.6
20260508201153 18 179 1.6 0.0 0.00 0.00 0.00 51 1005.8
20260508200828 17 0 3.2 16.1 0.00 0.00 0.00 51 1005.8
20260508200725 17 227 3.2 16.1 0.00 0.00 0.00 50 1005.9
20260508200359 17 207 3.2 16.1 0.00 0.00 0.00 48 1005.9
20260508200253 17 163 1.6 16.1 0.00 0.00 0.00 49 1005.9
20260508200146 17 224 1.6 16.1 0.00 0.00 0.00 48 1005.9
20260508200041 17 221 1.6 16.1 0.00 0.00 0.00 48 1005.9
20260508195938 17 182 1.6 16.1 0.00 0.00 0.00 48 1006.0
20260508195833 17 211 3.2 16.1 0.00 0.00 0.00 48 1005.9
20260508195510 17 205 1.6 16.1 0.00 0.00 0.00 47 1005.9
20260508195407 17 207 1.6 16.1 0.00 0.00 0.00 45 1006.0
20260508195306 17 202 3.2 16.1 0.00 0.00 0.00 45 1006.0
20260508195200 17 239 4.8 16.1 0.00 0.00 0.00 45 1006.0
20260508195053 17 263 4.8 16.1 0.00 0.00 0.00 45 1006.1
20260508194949 17 176 4.8 16.1 0.00 0.00 0.00 44 1006.1
20260508194844 17 216 4.8 16.1 0.00 0.00 0.00 46 1006.1
20260508194737 17 199 6.4 0.0 0.00 0.00 0.00 45 1006.1
20260508194633 17 211 6.4 17.7 0.00 0.00 0.00 44 1006.2
20260508194527 17 207 8.0 20.9 0.00 0.00 0.00 43 1006.1
20260508194424 17 237 8.0 20.9 0.00 0.00 0.00 43 1006.1
20260508194317 17 286 8.0 20.9 0.00 0.00 0.00 43 1006.2
20260508193952 17 252 6.4 20.9 0.00 0.00 0.00 45 1006.4
20260508193850 17 288 8.0 20.9 0.00 0.00 0.00 45 1006.4
20260508193743 17 270 6.4 20.9 0.00 0.00 0.00 45 1006.4
20260508193641 17 300 8.0 20.9 0.00 0.00 0.00 46 1006.4
20260508193534 17 292 8.0 20.9 0.00 0.00 0.00 43 1006.4
20260508193428 17 0 8.0 20.9 0.00 0.00 0.00 44 1006.4
20260508193104 17 252 9.7 20.9 0.00 0.00 0.00 44 1006.4
20260508193001 17 268 9.7 20.9 0.00 0.00 0.00 45 1006.4
20260508192857 17 251 9.7 20.9 0.00 0.00 0.00 46 1006.4
20260508192755 17 234 9.7 20.9 0.00 0.00 0.00 44 1006.4
20260508192653 17 277 9.7 20.9 0.00 0.00 0.00 45 1006.4
20260508192549 17 275 9.7 20.9 0.00 0.00 0.00 44 1006.4
20260508192442 17 295 9.7 20.9 0.00 0.00 0.00 44 1006.5
20260508192340 17 235 9.7 20.9 0.00 0.00 0.00 44 1006.5
20260508192235 17 284 8.0 20.9 0.00 0.00 0.00 44 1006.5
20260508192128 17 0 6.4 20.9 0.00 0.00 0.00 46 1006.6
20260508192024 17 238 6.4 20.9 0.00 0.00 0.00 47 1006.5
20260508191917 17 242 4.8 20.9 0.00 0.00 0.00 47 1006.6
20260508191814 17 286 4.8 20.9 0.00 0.00 0.00 48 1006.6
20260508191451 17 0 0.0 11.3 0.00 0.00 0.00 47 1006.6
20260508191344 17 235 0.0 6.4 0.00 0.00 0.00 48 1006.7
20260508191021 17 167 0.0 3.2 0.00 0.00 0.00 49 1006.7
20260508190915 17 254 0.0 14.5 0.00 0.00 0.00 48 1006.7
20260508190811 17 254 1.6 14.5 0.00 0.00 0.00 50 1006.7
20260508190704 17 153 1.6 14.5 0.00 0.00 0.00 48 1006.8
20260508190116 17 0 3.2 30.6 0.00 0.00 0.00 49 1006.9
20260508190013 17 185 3.2 30.6 0.00 0.00 0.00 48 1006.9
20260508185908 17 236 4.8 30.6 0.00 0.00 0.00 48 1007.0
20260508185803 17 261 4.8 30.6 0.00 0.00 0.00 48 1007.0
20260508185658 17 183 4.8 30.6 0.00 0.00 0.00 48 1007.0
20260508185555 17 272 6.4 30.6 0.00 0.00 0.00 49 1007.0
20260508185448 17 126 6.4 30.6 0.00 0.00 0.00 49 1007.0
20260508185345 17 172 6.4 30.6 0.00 0.00 0.00 47 1007.1
20260508185241 17 0 6.4 30.6 0.00 0.00 0.00 47 1007.1
20260508184917 17 188 4.8 30.6 0.00 0.00 0.00 48 1007.0
20260508184812 17 170 6.4 30.6 0.00 0.00 0.00 48 1007.1
20260508184002 17 228 1.6 12.9 0.00 0.00 0.00 45 1007.1
20260508183857 17 0 0.0 12.9 0.00 0.00 0.00 45 1007.1
20260508183532 17 219 1.6 14.5 0.00 0.00 0.00 47 1007.2
20260508183425 17 167 1.6 14.5 0.00 0.00 0.00 48 1007.2
20260508183319 17 240 1.6 14.5 0.00 0.00 0.00 46 1007.3
20260508183212 17 221 3.2 14.5 0.00 0.00 0.00 46 1007.2
20260508183103 17 191 3.2 14.5 0.00 0.00 0.00 47 1007.2
20260508182959 17 258 3.2 14.5 0.00 0.00 0.00 47 1007.2
20260508182857 17 232 3.2 14.5 0.00 0.00 0.00 46 1007.3
20260508182754 17 277 3.2 17.7 0.00 0.00 0.00 47 1007.3
20260508182425 16 261 3.2 17.7 0.00 0.00 0.00 46 1007.3
20260508182318 16 260 3.2 17.7 0.00 0.00 0.00 46 1007.3
20260508182213 16 216 1.6 17.7 0.00 0.00 0.00 48 1007.3
20260508182108 16 235 1.6 17.7 0.00 0.00 0.00 45 1007.4
20260508181743 16 209 4.8 17.7 0.00 0.00 0.00 48 1007.5
20260508181637 16 236 4.8 17.7 0.00 0.00 0.00 47 1007.4
20260508181533 16 232 4.8 17.7 0.00 0.00 0.00 52 1007.5
20260508181429 16 237 6.4 17.7 0.00 0.00 0.00 48 1007.5
20260508181322 16 180 6.4 17.7 0.00 0.00 0.00 47 1007.5
20260508181217 16 0 6.4 17.7 0.00 0.00 0.00 49 1007.5
20260508181114 16 238 6.4 17.7 0.00 0.00 0.00 48 1007.6
20260508181006 16 232 6.4 17.7 0.00 0.00 0.00 47 1007.5
20260508180859 16 212 4.8 17.7 0.00 0.00 0.00 46 1007.5
20260508180753 16 0 4.8 16.1 0.00 0.00 0.00 46 1007.5
20260508180647 16 0 4.8 16.1 0.00 0.00 0.00 49 1007.5
20260508180545 16 240 3.2 16.1 0.00 0.00 0.00 48 1007.5
20260508180438 16 248 3.2 12.9 0.00 0.00 0.00 47 1007.5
20260508180331 16 259 3.2 11.3 0.00 0.00 0.00 49 1007.5
20260508180229 16 219 1.6 11.3 0.00 0.00 0.00 48 1007.6
20260508180122 16 200 1.6 11.3 0.00 0.00 0.00 46 1007.6
20260508180015 16 188 3.2 11.3 0.00 0.00 0.00 46 1007.5
20260508175912 16 182 3.2 9.7 0.00 0.00 0.00 47 1007.6
20260508175809 16 233 3.2 6.4 0.00 0.00 0.00 49 1007.6
20260508175701 16 203 3.2 6.4 0.00 0.00 0.00 50 1007.6
20260508175554 16 194 4.8 12.9 0.00 0.00 0.00 51 1007.6
20260508175233 16 238 4.8 14.5 0.00 0.00 0.00 50 1007.7
20260508175130 16 248 6.4 14.5 0.00 0.00 0.00 48 1007.7
20260508174806 16 0 4.8 14.5 0.00 0.00 0.00 48 1007.8
20260508174700 16 290 3.2 14.5 0.00 0.00 0.00 50 1007.8
20260508174556 15 0 3.2 14.5 0.00 0.00 0.00 48 1007.8
20260508174449 15 0 3.2 14.5 0.00 0.00 0.00 48 1007.8
20260508174342 15 234 3.2 14.5 0.00 0.00 0.00 49 1007.8
20260508174238 15 0 3.2 12.9 0.00 0.00 0.00 48 1007.8
20260508174130 15 256 3.2 12.9 0.00 0.00 0.00 49 1007.8
20260508174024 15 237 3.2 12.9 0.00 0.00 0.00 48 1007.9
20260508173702 15 190 3.2 12.9 0.00 0.00 0.00 48 1008.0
20260508173556 15 261 4.8 12.9 0.00 0.00 0.00 48 1008.0
20260508173454 15 237 3.2 12.9 0.00 0.00 0.00 48 1008.0
20260508173349 15 256 3.2 12.9 0.00 0.00 0.00 46 1008.0
20260508173247 15 237 3.2 8.0 0.00 0.00 0.00 50 1008.0
20260508172703 16 261 3.2 12.9 0.00 0.00 0.00 46 1008.1
20260508172556 16 288 3.2 12.9 0.00 0.00 0.00 46 1008.2
20260508172451 16 248 3.2 12.9 0.00 0.00 0.00 50 1008.2
20260508172121 16 275 4.8 12.9 0.00 0.00 0.00 49 1008.3
20260508172017 16 215 4.8 12.9 0.00 0.00 0.00 49 1008.4
20260508171913 16 254 3.2 12.9 0.00 0.00 0.00 48 1008.4
20260508171806 16 0 3.2 12.9 0.00 0.00 0.00 50 1008.4
20260508171702 16 286 1.6 12.9 0.00 0.00 0.00 49 1008.6
20260508171556 16 266 1.6 12.9 0.00 0.00 0.00 48 1008.5
20260508171231 16 199 1.6 12.9 0.00 0.00 0.00 52 1008.5
20260508171126 15 193 1.6 11.3 0.00 0.00 0.00 53 1008.6
20260508171023 15 218 1.6 4.8 0.00 0.00 0.00 54 1008.6
20260508170916 15 231 1.6 4.8 0.00 0.00 0.00 56 1008.6
20260508170813 15 208 1.6 12.9 0.00 0.00 0.00 56 1008.6
20260508170707 15 218 1.6 12.9 0.00 0.00 0.00 53 1008.6
20260508170600 15 191 1.6 12.9 0.00 0.00 0.00 52 1008.6
20260508170457 15 233 1.6 12.9 0.00 0.00 0.00 53 1008.6
20260508170352 15 185 1.6 12.9 0.00 0.00 0.00 54 1008.6
20260508170248 15 0 1.6 0.0 0.00 0.00 0.00 54 1008.6
20260508170144 15 228 1.6 0.0 0.00 0.00 0.00 56 1008.6
20260508170037 15 302 3.2 14.5 0.00 0.00 0.00 54 1008.7
20260508165930 15 304 3.2 14.5 0.00 0.00 0.00 53 1008.8
20260508165828 15 264 3.2 14.5 0.00 0.00 0.00 52 1008.8
20260508165722 15 234 3.2 14.5 0.00 0.00 0.00 51 1008.8
20260508165614 15 234 3.2 14.5 0.00 0.00 0.00 51 1008.8
20260508165510 15 210 4.8 14.5 0.00 0.00 0.00 52 1008.9
20260508165141 15 194 3.2 14.5 0.00 0.00 0.00 51 1008.9
20260508164813 15 180 3.2 11.3 0.00 0.00 0.00 53 1008.9
20260508164706 15 224 3.2 11.3 0.00 0.00 0.00 54 1008.9
20260508164342 15 252 1.6 11.3 0.00 0.00 0.00 55 1009.0
20260508164023 15 173 0.0 11.3 0.00 0.00 0.00 53 1009.0
20260508163655 15 178 0.0 11.3 0.00 0.00 0.00 56 1009.1
20260508163551 15 237 1.6 11.3 0.00 0.00 0.00 55 1009.1
20260508163447 15 224 0.0 11.3 0.00 0.00 0.00 55 1009.1
20260508163343 15 226 0.0 8.0 0.00 0.00 0.00 55 1009.1
20260508163240 15 227 0.0 1.6 0.00 0.00 0.00 57 1009.0
20260508163137 15 189 0.0 0.0 0.00 0.00 0.00 54 1009.0
20260508163035 15 284 1.6 9.7 0.00 0.00 0.00 53 1009.1
20260508162933 15 284 1.6 9.7 0.00 0.00 0.00 53 1009.1
20260508162827 15 297 1.6 9.7 0.00 0.00 0.00 57 1009.1
20260508162723 15 233 1.6 9.7 0.00 0.00 0.00 55 1009.2
20260508162615 15 255 1.6 9.7 0.00 0.00 0.00 56 1009.2
20260508162512 15 269 0.0 9.7 0.00 0.00 0.00 58 1009.2
20260508162407 15 218 1.6 9.7 0.00 0.00 0.00 57 1009.2
20260508162306 15 266 0.0 9.7 0.00 0.00 0.00 57 1009.1
20260508162202 15 184 0.0 9.7 0.00 0.00 0.00 56 1009.1
20260508162055 15 302 0.0 9.7 0.00 0.00 0.00 55 1009.1
20260508161948 14 313 0.0 9.7 0.00 0.00 0.00 58 1009.1
20260508161846 14 277 0.0 6.4 0.00 0.00 0.00 56 1009.1
20260508161743 14 270 0.0 6.4 0.00 0.00 0.00 55 1009.2
20260508161639 14 224 0.0 3.2 0.00 0.00 0.00 56 1009.2
20260508161311 14 225 0.0 6.4 0.00 0.00 0.00 54 1009.3
20260508161209 14 232 0.0 6.4 0.00 0.00 0.00 55 1009.3
20260508161105 14 232 0.0 6.4 0.00 0.00 0.00 57 1009.3
20260508161000 14 190 1.6 6.4 0.00 0.00 0.00 56 1009.3
20260508160635 14 228 1.6 0.0 0.00 0.00 0.00 57 1009.4
20260508160529 14 286 1.6 8.0 0.00 0.00 0.00 58 1009.4
20260508160422 14 288 1.6 6.4 0.00 0.00 0.00 59 1009.4
20260508160314 14 254 1.6 6.4 0.00 0.00 0.00 57 1009.4
20260508160208 14 191 3.2 8.0 0.00 0.00 0.00 57 1009.4
20260508160100 14 0 3.2 8.0 0.00 0.00 0.00 55 1009.5
20260508155957 14 257 3.2 8.0 0.00 0.00 0.00 56 1009.5
20260508155854 14 239 3.2 8.0 0.00 0.00 0.00 57 1009.5
20260508155752 14 209 1.6 8.0 0.00 0.00 0.00 57 1009.5
20260508155650 13 177 1.6 8.0 0.00 0.00 0.00 58 1009.4
20260508155545 13 0 1.6 8.0 0.00 0.00 0.00 58 1009.4
20260508155438 13 232 1.6 8.0 0.00 0.00 0.00 57 1009.5
20260508155334 13 232 1.6 8.0 0.00 0.00 0.00 60 1009.5
20260508155008 13 241 0.0 6.4 0.00 0.00 0.00 60 1009.4
20260508154904 13 159 0.0 6.4 0.00 0.00 0.00 60 1009.4
20260508154756 13 197 0.0 4.8 0.00 0.00 0.00 60 1009.4
20260508154653 13 275 0.0 0.0 0.00 0.00 0.00 60 1009.4
20260508154549 13 300 0.0 4.8 0.00 0.00 0.00 60 1009.4
20260508154446 13 300 0.0 4.8 0.00 0.00 0.00 59 1009.4
20260508154343 13 300 0.0 4.8 0.00 0.00 0.00 58 1009.4
20260508154017 13 219 0.0 4.8 0.00 0.00 0.00 60 1009.5
20260508153914 13 259 0.0 4.8 0.00 0.00 0.00 59 1009.5
20260508153813 13 248 0.0 4.8 0.00 0.00 0.00 60 1009.5
20260508153710 13 228 0.0 4.8 0.00 0.00 0.00 58 1009.5
20260508153605 13 228 0.0 4.8 0.00 0.00 0.00 60 1009.5
20260508153500 13 169 0.0 9.7 0.00 0.00 0.00 60 1009.6
20260508153134 13 179 0.0 9.7 0.00 0.00 0.00 59 1009.6
20260508153028 13 182 0.0 9.7 0.00 0.00 0.00 60 1009.6
20260508152708 13 192 0.0 9.7 0.00 0.00 0.00 60 1009.6
20260508152604 13 169 0.0 9.7 0.00 0.00 0.00 60 1009.6
20260508152459 13 187 0.0 9.7 0.00 0.00 0.00 59 1009.7
20260508152352 13 0 0.0 9.7 0.00 0.00 0.00 60 1009.7
20260508152250 13 254 0.0 9.7 0.00 0.00 0.00 60 1009.6
20260508152146 13 194 0.0 9.7 0.00 0.00 0.00 58 1009.6
20260508152043 13 261 0.0 9.7 0.00 0.00 0.00 58 1009.6
20260508151937 13 32 1.6 0.0 0.00 0.00 0.00 59 1009.6
20260508151830 13 32 1.6 0.0 0.00 0.00 0.00 59 1009.6
20260508151724 13 29 1.6 0.0 0.00 0.00 0.00 61 1009.6
20260508151620 13 28 1.6 0.0 0.00 0.00 0.00 61 1009.6
20260508151255 13 5 3.2 9.7 0.00 0.00 0.00 58 1009.6
20260508151150 13 21 1.6 9.7 0.00 0.00 0.00 60 1009.6
20260508150824 13 355 0.0 9.7 0.00 0.00 0.00 59 1009.6
20260508150720 13 313 0.0 9.7 0.00 0.00 0.00 57 1009.6
20260508150356 13 350 0.0 6.4 0.00 0.00 0.00 58 1009.7
20260508150250 13 15 0.0 0.0 0.00 0.00 0.00 58 1009.7
20260508145924 13 0 0.0 8.0 0.00 0.00 0.00 58 1009.8
20260508145820 13 0 0.0 8.0 0.00 0.00 0.00 57 1009.7
20260508145713 13 0 0.0 8.0 0.00 0.00 0.00 56 1009.7
20260508145608 13 11 0.0 8.0 0.00 0.00 0.00 58 1009.7
20260508145504 13 10 0.0 8.0 0.00 0.00 0.00 58 1009.7
20260508144702 12 314 0.0 0.0 0.00 0.00 0.00 58 1009.9
20260508144558 12 314 0.0 6.4 0.00 0.00 0.00 58 1009.8
20260508144452 12 303 0.0 6.4 0.00 0.00 0.00 61 1009.9
20260508144349 12 294 0.0 1.6 0.00 0.00 0.00 64 1009.9
20260508144246 12 32 0.0 3.2 0.00 0.00 0.00 64 1010.0
20260508144137 12 32 0.0 3.2 0.00 0.00 0.00 60 1009.9
20260508144035 12 15 0.0 3.2 0.00 0.00 0.00 60 1009.9
20260508143931 12 350 0.0 3.2 0.00 0.00 0.00 60 1009.9
20260508143829 12 355 0.0 0.0 0.00 0.00 0.00 60 1009.8
20260508143721 12 306 0.0 3.2 0.00 0.00 0.00 62 1009.8
20260508143616 12 331 0.0 3.2 0.00 0.00 0.00 62 1009.8
20260508143510 12 319 0.0 6.4 0.00 0.00 0.00 60 1009.8
20260508143407 12 261 0.0 6.4 0.00 0.00 0.00 62 1009.8
20260508143044 12 288 0.0 0.0 0.00 0.00 0.00 63 1009.8
20260508142941 12 19 0.0 0.0 0.00 0.00 0.00 63 1009.8
20260508142839 12 19 0.0 0.0 0.00 0.00 0.00 62 1009.8
20260508142735 12 19 0.0 0.0 0.00 0.00 0.00 62 1009.8
20260508142633 12 19 0.0 8.0 0.00 0.00 0.00 61 1009.9
20260508142527 12 22 0.0 8.0 0.00 0.00 0.00 63 1009.9
20260508142424 12 288 0.0 8.0 0.00 0.00 0.00 62 1009.9
20260508142319 12 347 0.0 8.0 0.00 0.00 0.00 65 1009.9
20260508142212 12 25 0.0 0.0 0.00 0.00 0.00 68 1010.0
20260508142110 11 60 0.0 3.2 0.00 0.00 0.00 67 1009.9
20260508142003 11 58 0.0 3.2 0.00 0.00 0.00 67 1010.0
20260508141857 11 296 0.0 3.2 0.00 0.00 0.00 68 1010.0
20260508141535 11 301 0.0 4.8 0.00 0.00 0.00 69 1010.1
20260508141431 11 282 0.0 0.0 0.00 0.00 0.00 67 1010.1
20260508141327 11 286 0.0 8.0 0.00 0.00 0.00 65 1010.1
20260508141225 11 286 0.0 8.0 0.00 0.00 0.00 66 1010.2
20260508140900 11 296 0.0 4.8 0.00 0.00 0.00 70 1010.2
20260508140756 11 335 0.0 4.8 0.00 0.00 0.00 71 1010.2
20260508140649 11 288 0.0 0.0 0.00 0.00 0.00 69 1010.2
20260508140542 11 280 0.0 0.0 0.00 0.00 0.00 73 1010.2
20260508140439 11 332 0.0 0.0 0.00 0.00 0.00 72 1010.2
20260508140335 11 332 0.0 0.0 0.00 0.00 0.00 72 1010.2
20260508140231 11 332 0.0 0.0 0.00 0.00 0.00 71 1010.2
20260508140124 11 321 0.0 0.0 0.00 0.00 0.00 72 1010.2
20260508140019 11 305 0.0 1.6 0.00 0.00 0.00 71 1010.2
20260508135912 11 277 0.0 1.6 0.00 0.00 0.00 71 1010.2